User: anonymous   Login
Location: Theydon Bois
(51.6750°N, 0.1050°E)
Time: 02:50:25
(UTC+01:00)
Language:

SL-24 R/B - RUBIN 2 - Orbit

View from above orbital plane
View from above orbital plane
View from above satellite
View from above satellite

Ground track
Ground track

The orbit data is extracted from the following two-line orbital elements,

1 27610U 02058F   18201.23732380 -.00000101 +00000-0 +68126-5 0  9992
2 27610 064.5606 092.0451 0270611 104.0700 007.3165 14.28133763812220
Epoch (UTC): 20 July 2018 05:41:44
Eccentricity: 0.0270611
inclination: 64.5606°
perigee height: 604 km
apogee height: 992 km
right ascension of ascending node: 92.0451°
argument of perigee: 104.0700°
revolutions per day: 14.28133763
mean anomaly at epoch: 7.3165°
orbit number at epoch: 81222

The dashed part of the orbit path shows where the satellite is in the earth's shadow,  

DLR